Theta_e
308 308 309 308 308 309 309 313 314 312 311 309 308 307 306 307 306 305 305 306 306 305 305 305 305 304 304 305 305 306 307 307 310 312 314 310 304 305 303 301 299 299 303 303 303 305 309 306 300 309 312 311 312 311 311 310 310 309 309 310 310 309 309 309 309 309 309 309 308 308 308 308 308 308 309 310 310 310 310 310 310 310 310 310 309 309 309 308 308 308 308 308 308 308 307 307 306
308 308 308 308 308 309 312 314 313 311 310 308 308 306 306 307 306 306 306 306 305 305 305 305 304 304 304 304 304 306 306 305 307 308 308 305 304 305 302 301 299 299 302 302 304 304 308 307 299 305 311 312 311 311 311 310 310 309 309 309 309 310 309 309 309 309 309 308 308 308 308 308 307 308 308 308 309 309 309 309 309 309 309 308 308 308 308 308 307 307 307 307 307 307 307 307 306
307 307 307 308 309 310 313 315 312 309 309 308 307 305 306 307 307 306 306 306 305 304 304 304 303 303 303 304 305 305 304 304 306 305 304 304 304 304 302 302 299 299 301 301 303 304 306 306 298 301 309 312 311 311 311 311 310 310 309 309 309 309 309 309 309 309 308 308 308 307 308 307 306 307 308 308 308 309 308 308 308 308 308 308 307 307 308 308 307 307 307 307 307 307 307 307 306
306 308 308 308 311 313 315 315 313 309 308 308 306 306 307 307 306 306 305 305 304 304 304 304 304 303 303 305 304 304 304 304 305 304 303 304 305 304 302 301 299 301 301 300 302 304 304 302 298 299 306 311 311 311 310 310 310 310 309 309 309 308 308 308 308 308 307 307 307 307 307 306 305 305 307 307 307 308 308 308 308 307 307 307 307 307 307 307 308 307 307 307 307 307 306 306 305
306 308 308 308 312 315 316 314 312 309 308 307 307 307 307 306 305 305 304 304 303 303 303 303 304 303 303 304 304 305 304 304 305 305 304 305 305 304 302 300 300 302 302 301 302 304 304 303 300 298 302 308 310 309 310 309 309 309 309 309 308 307 306 306 306 305 305 306 306 305 305 305 304 304 305 307 306 307 308 307 307 307 307 307 307 307 307 307 307 307 306 306 306 306 305 304 303
308 309 308 310 312 314 315 312 309 308 308 307 307 307 306 305 305 304 303 303 303 303 303 303 304 303 304 305 304 306 305 304 305 305 305 305 304 304 302 301 301 303 303 303 303 303 305 304 300 298 300 306 308 308 309 308 308 308 307 306 305 304 303 302 302 301 300 301 301 301 301 301 301 300 301 305 305 305 307 307 307 307 307 306 307 307 307 306 306 307 306 304 303 302 302 300 299
309 309 311 314 314 313 312 309 308 308 307 307 307 306 305 305 304 303 303 303 303 303 303 303 304 303 305 305 304 305 306 304 304 304 306 305 303 304 302 301 303 304 303 303 303 303 304 302 299 298 299 302 306 306 307 306 305 304 303 302 301 300 299 299 298 298 297 297 297 296 296 296 296 296 297 300 304 304 305 306 306 306 306 306 306 306 306 306 305 306 305 303 300 298 298 297 297
309 311 315 316 315 313 310 308 307 307 306 306 306 306 305 304 304 303 303 304 303 303 303 303 303 303 305 304 305 305 305 305 305 304 305 304 303 304 303 302 303 304 303 303 303 304 303 301 299 299 298 299 301 301 302 302 302 301 301 300 299 299 297 297 296 296 295 295 295 294 293 293 293 293 293 295 299 301 302 304 306 306 306 306 305 306 306 305 305 305 305 303 298 296 296 295 295
309 311 316 316 313 311 308 307 306 305 306 306 305 306 306 304 305 304 304 304 303 303 303 303 303 304 303 303 305 305 303 305 305 305 305 304 303 304 304 303 304 304 303 303 303 304 303 301 299 299 298 298 298 298 298 299 299 299 299 298 298 298 297 297 296 296 295 295 295 294 293 292 291 291 291 291 293 296 298 300 304 306 305 304 304 304 305 304 304 303 303 300 297 295 293 292 292
310 312 317 315 310 309 308 307 306 305 305 305 305 305 304 304 304 305 304 304 303 304 303 303 303 303 303 303 305 305 303 304 304 304 304 304 303 303 303 303 304 304 304 303 303 303 303 301 299 299 299 298 298 298 297 297 298 298 298 298 298 298 298 297 297 297 296 296 295 295 294 294 293 291 291 290 290 292 293 294 299 303 303 302 302 302 302 301 300 299 298 297 294 292 291 290 290
312 314 318 316 310 310 309 308 307 305 304 304 304 304 304 304 304 304 304 304 304 304 304 303 303 303 303 304 306 305 303 303 303 303 302 304 304 303 303 303 304 304 304 304 303 303 303 302 301 299 298 298 298 298 298 297 297 297 297 297 297 297 298 298 298 298 297 297 296 296 295 295 294 293 292 291 290 290 291 290 292 297 298 297 297 296 297 296 295 295 294 294 292 291 290 290 290
314 317 318 316 312 310 309 307 306 305 304 304 304 304 304 304 304 304 304 304 303 304 304 302 303 304 303 304 306 305 303 303 303 302 302 303 303 304 303 304 304 304 304 304 303 303 303 303 303 300 299 298 298 298 297 297 297 297 297 297 297 297 297 298 298 298 298 297 297 296 296 295 295 295 294 293 292 291 291 290 290 292 293 292 292 292 292 292 292 292 292 291 291 290 290 290 290
316 321 320 315 312 310 308 308 307 306 305 305 304 304 305 303 304 304 304 304 303 304 304 303 303 303 303 304 305 304 303 303 303 303 303 303 303 303 304 304 304 304 304 304 304 304 303 303 303 302 300 299 298 298 298 298 298 297 298 297 297 297 297 297 297 298 298 298 298 297 297 296 296 295 295 294 294 293 292 291 291 290 291 290 290 290 290 291 291 291 291 291 291 291 291 291 292
316 320 318 313 312 309 309 308 306 307 306 306 304 304 304 303 304 304 304 305 304 305 304 303 303 303 304 305 305 304 303 303 303 303 303 303 303 303 303 304 304 304 304 303 303 303 303 303 304 303 303 301 299 298 298 298 298 298 298 298 298 298 297 297 297 297 297 297 297 298 298 297 297 296 296 295 295 294 294 293 293 292 292 292 291 291 291 292 292 292 292 292 293 292 292 293 294
315 318 317 315 312 310 310 308 308 309 307 305 305 303 304 303 304 304 304 305 306 305 304 303 304 304 304 305 306 305 304 303 303 303 303 303 303 303 303 304 304 304 304 304 303 303 303 303 304 304 304 303 300 299 299 299 299 298 298 298 298 298 298 298 297 297 297 297 297 297 298 297 298 297 297 297 296 295 295 295 295 294 294 294 293 293 293 294 294 294 294 295 295 294 295 296 296
315 319 318 315 312 311 312 310 310 310 307 305 305 303 303 304 304 303 304 304 305 305 305 304 303 304 305 305 305 304 304 303 303 304 304 303 303 303 303 303 304 304 304 303 303 303 303 303 304 304 304 304 302 300 300 301 299 298 299 299 299 298 298 298 298 297 297 297 297 297 297 298 298 298 298 297 297 296 296 296 296 296 295 295 295 295 295 295 295 295 296 296 296 296 296 297 297
314 320 318 313 312 311 312 311 310 309 307 305 304 303 303 304 303 303 303 303 303 304 304 304 303 303 304 304 304 304 304 303 303 304 304 303 303 303 304 304 304 304 304 303 302 302 303 303 303 304 304 304 303 300 300 300 299 299 299 299 299 299 299 299 298 298 298 297 297 297 297 297 297 297 297 297 297 297 297 297 297 296 296 296 296 296 296 296 296 296 296 296 297 297 297 298 297
315 321 318 313 312 310 309 309 309 308 306 304 304 304 304 304 303 303 303 302 303 303 303 304 304 304 303 304 304 304 304 303 304 304 304 304 304 304 304 304 304 304 304 304 303 302 302 302 302 303 304 304 303 301 299 299 299 299 299 299 299 299 299 299 299 299 298 298 297 297 297 297 297 297 297 297 297 297 297 297 297 297 297 297 297 297 297 297 297 297 297 297 298 298 297 298 297
315 319 318 314 311 308 307 307 307 307 306 304 304 304 305 305 304 303 303 303 303 302 303 304 304 305 304 304 304 304 303 303 304 304 304 304 304 304 304 304 304 304 304 304 304 303 303 303 303 303 303 303 303 301 299 299 299 299 300 300 299 299 299 299 299 299 299 299 298 297 297 297 297 296 297 297 297 297 298 298 297 298 297 297 297 297 298 298 298 298 298 297 298 298 297 297 297
313 315 315 311 308 306 306 307 307 307 306 304 304 304 305 305 304 303 303 303 304 303 304 304 304 304 305 304 304 303 303 303 303 304 304 304 304 304 304 304 304 304 304 304 304 304 304 303 303 303 303 302 302 301 300 300 300 300 301 301 301 300 300 299 299 299 299 299 299 298 298 297 297 297 297 297 297 297 297 297 297 298 298 298 298 298 298 298 297 298 298 297 297 297 297 297 297
310 309 310 308 306 306 305 305 306 306 305 304 304 304 304 305 305 304 303 304 304 304 305 305 305 305 305 304 304 304 303 303 303 303 303 304 304 304 304 305 305 305 305 305 305 305 305 304 303 303 303 303 302 301 300 300 301 302 303 303 303 302 302 301 300 299 299 299 299 299 299 298 298 297 297 297 297 297 297 297 297 297 297 297 297 297 297 297 297 297 297 297 297 297 297 297 297
307 306 307 307 307 305 304 304 305 306 306 305 304 304 304 305 304 304 304 304 305 305 306 306 306 306 305 305 304 304 303 303 303 303 303 304 304 305 305 305 305 305 306 306 305 305 305 305 304 303 303 303 302 301 300 301 302 303 303 303 303 303 303 302 301 301 300 299 299 299 299 299 299 298 298 297 297 297 296 296 296 296 297 297 297 297 297 297 297 297 297 297 297 297 297 297 297
306 305 305 306 306 304 304 304 304 305 305 305 304 304 304 304 304 305 304 304 305 306 306 306 306 305 305 306 305 304 303 303 303 304 304 304 304 305 305 305 305 305 305 306 305 305 305 305 304 303 303 303 302 302 301 301 302 303 302 302 303 303 303 303 302 301 301 300 300 299 299 299 299 299 298 298 297 297 297 297 296 296 296 296 297 296 297 297 297 297 297 297 297 297 297 297 297
306 305 304 304 304 304 303 303 303 304 305 304 304 303 304 304 304 305 305 304 305 305 305 306 305 304 305 306 305 304 304 304 303 304 304 304 305 305 305 305 306 305 305 305 305 305 304 304 304 303 303 303 302 302 301 300 301 301 301 301 302 302 302 302 301 301 301 301 300 300 300 299 299 299 299 298 298 298 297 297 297 296 296 296 296 296 296 297 296 296 296 296 297 297 296 297 297
306 305 304 304 303 303 303 303 303 303 303 303 303 303 303 304 304 304 304 304 305 305 305 305 305 305 304 305 305 304 304 304 304 304 305 305 305 305 305 306 306 306 306 305 305 305 304 303 303 303 303 302 302 302 301 300 300 300 301 302 301 301 300 301 301 301 301 301 301 300 300 300 299 299 299 299 298 298 298 297 297 297 296 296 296 296 296 296 296 296 296 296 296 296 297 297 297
305 305 305 304 303 303 303 303 303 302 303 302 302 303 304 304 304 304 304 304 305 305 305 305 305 305 304 304 303 303 304 304 305 305 305 305 305 305 306 306 306 306 306 305 305 305 304 303 303 303 303 303 302 301 301 301 301 301 302 302 301 301 300 300 300 301 301 301 301 300 300 300 300 299 299 299 299 298 298 298 297 297 297 297 296 296 296 296 296 296 296 296 296 296 297 297 297
305 304 304 303 303 303 303 303 302 302 302 303 302 303 304 304 304 305 306 306 305 305 305 305 305 305 304 304 303 302 303 304 305 305 305 305 305 305 305 305 306 306 306 305 305 305 304 304 303 303 303 303 302 302 302 302 302 302 302 302 301 301 300 300 300 300 301 301 301 301 300 300 300 300 299 299 299 299 298 298 298 297 297 297 296 296 296 296 296 296 296 296 296 296 296 296 296
304 304 304 303 303 303 303 303 303 303 303 303 303 303 303 304 305 306 306 307 307 305 305 305 305 305 304 304 303 302 303 303 304 304 304 305 305 305 305 305 305 305 305 305 305 304 304 304 303 303 303 302 302 302 301 301 301 301 301 302 301 301 300 300 300 300 300 300 301 301 300 300 300 300 299 299 299 299 299 298 298 298 297 297 297 296 296 296 296 296 296 296 296 296 296 296 296
304 304 305 303 303 304 303 304 304 303 304 303 303 305 307 305 307 308 307 306 306 306 305 305 305 305 304 304 304 303 302 303 304 304 304 304 305 305 305 305 305 304 305 305 304 304 304 304 304 303 303 303 302 302 301 301 300 300 301 301 301 301 301 301 300 300 300 300 301 301 300 300 300 300 300 299 299 299 299 299 298 298 297 297 297 297 296 296 296 296 296 296 296 296 296 296 296
305 305 306 306 305 305 304 304 304 303 305 304 304 309 311 309 310 310 308 306 305 305 305 305 305 305 304 304 304 304 303 303 303 303 304 304 305 305 305 305 305 304 304 304 304 304 304 304 304 304 303 303 303 302 301 301 300 300 300 301 301 301 301 301 301 301 300 301 301 301 301 300 300 300 300 299 299 299 299 299 299 298 298 297 297 297 296 296 296 296 296 296 296 296 296 296 296
306 306 307 310 309 307 305 304 304 304 305 305 305 309 311 310 312 311 308 307 305 305 305 305 305 305 305 305 305 305 304 303 304 304 304 304 305 305 305 305 305 305 304 304 305 304 304 304 304 304 303 303 303 302 301 301 301 301 301 301 301 301 301 301 301 301 300 301 301 300 300 300 300 300 300 299 299 299 299 299 298 298 298 297 297 297 296 296 296 296 296 296 296 296 296 296 296
307 309 311 313 312 309 306 305 305 305 305 304 306 310 310 309 312 311 308 307 306 306 305 305 305 305 305 306 306 306 305 304 304 304 305 304 304 305 305 305 305 305 305 305 305 305 305 305 304 303 303 302 302 301 301 301 301 301 301 301 302 302 301 301 301 301 301 301 301 300 300 300 300 300 300 299 299 299 299 299 298 298 298 298 297 297 296 296 296 296 296 295 296 296 296 296 296
309 310 313 313 312 312 309 305 305 306 306 305 306 309 309 309 310 310 308 307 306 306 306 306 306 306 306 307 306 306 305 305 305 304 305 305 305 305 304 304 305 305 305 305 305 305 305 304 304 303 302 302 301 301 301 301 301 301 301 301 301 302 301 301 301 301 301 300 300 300 300 301 300 300 300 299 299 299 299 299 298 298 298 298 297 297 296 296 296 296 296 296 295 295 296 296 296
314 314 315 314 311 311 310 308 306 305 306 306 307 307 307 308 308 309 308 307 307 306 306 307 307 308 308 309 307 306 306 306 305 304 305 305 305 305 305 305 305 305 305 304 305 305 304 304 304 303 302 302 302 301 301 301 301 301 301 301 301 301 301 301 301 301 301 300 300 300 300 300 300 300 300 299 299 299 299 299 298 298 298 298 297 297 297 296 296 296 296 296 296 295 295 295 296
314 314 314 313 311 311 311 310 307 305 306 307 307 307 307 308 308 309 310 308 307 307 307 307 308 309 309 310 309 307 307 307 306 305 305 305 305 305 305 305 305 304 304 304 304 304 304 304 304 303 303 302 302 302 302 302 302 301 301 301 301 301 301 301 301 301 301 301 301 300 301 300 300 300 299 299 299 299 299 299 298 298 298 298 297 297 297 296 296 296 297 297 296 296 295 295 296
311 312 311 312 311 311 311 309 306 305 308 308 308 309 309 309 310 310 312 310 308 307 308 308 309 309 309 310 309 309 309 308 307 307 306 306 305 305 305 305 305 304 304 304 304 304 304 304 304 304 303 302 302 302 302 302 302 302 302 302 302 301 301 301 301 301 301 301 301 300 300 300 300 300 299 299 299 299 299 299 298 298 298 298 297 297 297 296 296 297 297 296 296 296 296 296 296
311 312 311 313 313 312 311 309 306 305 309 310 309 310 309 310 310 310 312 313 310 308 309 310 310 311 311 310 310 311 312 310 308 308 307 307 306 305 305 305 304 304 304 304 304 303 303 303 303 303 303 302 302 302 302 302 302 302 302 302 302 301 301 301 301 301 301 301 301 300 300 300 300 299 299 299 299 299 299 299 298 298 298 298 297 297 296 296 297 297 296 296 296 296 296 296 296
311 313 313 313 314 313 311 310 306 305 308 310 309 310 310 309 310 311 313 314 314 311 311 311 311 311 312 312 312 312 312 312 312 310 308 307 306 305 305 304 304 304 304 303 303 303 302 302 302 302 302 302 302 302 302 302 302 302 302 302 302 302 302 302 302 302 302 302 301 300 300 300 299 299 299 299 299 299 299 299 298 298 298 298 298 297 296 296 297 297 296 296 296 296 296 296 296
312 315 315 315 314 312 310 310 308 306 308 310 310 310 309 309 311 313 315 315 315 315 314 314 314 313 313 311 312 313 313 315 316 311 308 307 306 305 305 304 304 303 303 303 302 302 302 302 302 302 302 302 302 302 302 302 302 302 302 302 303 303 303 304 304 303 303 303 302 301 300 300 299 299 299 299 299 299 299 298 298 298 298 298 298 297 297 297 297 297 296 296 295 295 296 295 296
315 316 314 315 315 311 309 310 309 308 309 310 311 310 310 313 316 316 315 314 316 317 315 315 315 315 315 315 316 316 316 317 317 312 309 307 306 306 305 304 304 303 303 303 303 302 302 302 302 302 302 302 303 302 302 302 302 302 302 303 304 305 305 305 304 304 303 303 302 301 300 300 299 299 299 299 299 299 299 298 298 298 298 298 298 297 297 297 297 297 296 296 295 295 296 295 296
320 320 316 315 313 310 309 310 309 310 311 311 312 314 316 318 318 317 316 316 317 317 316 316 316 316 315 317 318 317 318 318 317 315 311 307 306 306 305 304 304 303 303 303 303 303 303 303 303 303 303 302 302 302 302 302 302 302 303 303 303 304 304 304 304 303 303 302 302 301 300 299 299 299 299 299 299 299 298 298 298 298 298 298 298 297 297 297 297 297 296 295 295 295 296 295 295
317 317 315 312 311 309 310 311 312 313 313 312 314 316 319 318 316 317 318 318 319 320 321 320 320 318 316 315 315 315 317 318 317 316 312 307 306 307 306 305 305 304 304 303 304 303 303 303 303 303 303 303 302 302 302 302 302 302 302 303 302 302 302 302 302 302 301 301 301 300 300 299 299 299 299 299 299 299 298 298 298 298 298 298 298 298 297 297 296 296 296 295 294 294 295 294 295
313 314 312 310 310 311 313 313 313 315 314 313 314 316 318 318 317 317 320 319 319 321 322 321 320 320 320 319 316 315 316 317 316 315 312 310 308 308 307 307 306 305 305 304 304 304 304 304 304 303 303 303 303 303 302 302 302 302 302 302 301 301 301 301 301 302 301 301 301 301 300 300 300 299 299 299 299 299 298 299 298 298 298 298 298 298 297 296 296 296 296 295 294 294 294 293 294
315 313 310 310 310 311 313 314 314 316 316 315 316 315 315 317 319 319 320 319 317 317 317 318 319 319 320 319 317 316 316 317 319 317 313 310 310 309 308 308 307 306 306 306 305 305 305 305 304 304 304 304 304 303 303 302 302 302 301 301 301 301 301 302 303 304 304 303 303 302 302 301 301 300 299 299 299 299 298 299 299 299 298 298 298 298 297 296 296 296 295 295 294 294 293 293 294
315 309 308 309 309 310 311 313 315 316 316 317 319 316 316 319 321 319 319 318 315 315 315 315 319 321 320 319 318 318 317 318 320 319 314 310 309 310 309 309 308 308 307 306 306 306 305 305 304 304 304 304 304 303 303 303 302 301 301 301 301 301 302 303 305 305 304 304 304 303 302 302 301 300 299 299 299 299 299 299 299 299 299 298 298 298 297 296 296 295 295 295 294 294 293 292 293
313 307 308 309 309 311 312 313 316 316 316 318 318 315 315 317 319 316 317 317 313 313 314 313 317 320 321 320 317 316 315 318 319 316 312 310 310 310 309 308 308 308 308 307 307 306 305 305 304 304 304 304 304 304 304 303 303 302 301 301 301 301 302 303 305 305 304 304 303 303 302 301 300 300 299 299 299 299 299 299 299 299 299 298 298 297 296 295 295 295 295 295 294 293 293 291 291
311 310 315 315 313 313 314 314 315 316 318 317 314 313 311 312 322 321 312 312 313 313 313 313 315 316 317 318 316 313 312 314 315 313 310 309 310 309 308 308 308 308 308 307 307 306 305 305 304 304 304 304 304 304 304 304 304 303 302 302 303 303 303 303 304 304 304 303 302 302 301 300 300 300 299 299 299 299 299 299 299 299 298 298 297 296 296 296 295 295 295 294 294 293 292 290 290
311 315 318 320 318 315 315 316 315 315 318 316 311 313 310 312 324 323 310 311 314 312 312 313 314 314 314 316 316 314 313 313 313 313 312 310 309 309 307 307 307 307 308 308 307 306 305 304 304 304 304 304 303 303 303 304 304 304 303 303 303 303 303 304 304 304 303 303 302 301 301 300 300 300 299 299 299 299 299 299 299 299 298 297 297 296 296 296 295 295 295 294 293 292 291 289 288
314 318 318 319 318 314 313 315 315 314 316 315 310 310 312 313 316 315 311 313 313 313 315 314 314 314 314 316 316 316 316 316 315 314 315 313 310 309 309 307 306 306 307 307 307 306 305 304 304 304 304 303 303 303 303 303 303 303 304 303 303 303 303 304 304 304 303 303 302 301 301 301 300 300 299 299 299 299 299 299 299 298 297 296 296 296 296 295 295 295 294 293 292 291 289 288 286
316 318 318 317 314 310 311 313 313 314 317 315 309 310 315 315 314 313 313 313 313 314 315 314 315 314 314 315 316 317 317 317 316 316 317 315 311 310 310 310 309 307 306 306 307 306 305 304 304 304 304 303 304 304 303 303 303 303 303 303 303 303 303 303 303 304 303 303 302 302 301 301 301 300 300 300 299 299 299 299 298 297 296 296 296 295 295 295 295 294 294 292 291 289 288 287 286
313 314 315 315 312 310 312 315 315 316 319 317 311 312 315 313 313 316 314 314 315 314 314 315 316 315 315 317 316 315 315 315 317 318 318 315 311 311 310 310 310 309 308 308 307 307 305 305 304 304 304 304 304 304 303 303 303 303 303 303 303 303 303 303 303 303 303 303 303 302 302 301 301 301 300 300 299 299 299 298 297 296 296 295 295 295 294 294 294 294 292 291 289 288 287 285 285
311 311 315 316 315 315 315 316 315 313 317 321 318 317 317 314 315 316 314 315 315 313 315 317 317 317 318 319 316 314 315 316 319 321 319 314 311 311 310 309 309 309 309 309 308 308 307 306 305 304 304 304 304 304 304 304 303 303 302 302 303 302 302 302 302 302 303 303 303 303 302 302 301 301 300 299 299 298 298 297 296 296 295 295 294 294 294 294 294 293 291 289 288 287 286 285 284
310 310 315 313 310 314 317 315 312 312 316 321 317 315 317 315 315 315 314 314 314 314 317 317 318 319 320 320 318 316 316 317 318 319 317 312 310 311 310 310 310 309 309 309 308 308 307 307 306 305 305 304 304 304 304 304 303 302 302 302 303 302 302 302 302 302 302 302 302 303 303 302 302 301 300 299 298 298 297 296 295 295 294 294 294 294 294 294 293 291 289 288 287 286 285 284 284
310 312 313 310 308 311 315 315 315 316 318 317 312 310 312 311 312 315 314 314 314 315 316 317 318 319 319 319 317 317 317 317 317 315 313 310 309 309 309 309 309 309 308 308 307 308 307 307 307 306 305 305 304 304 304 304 304 303 302 302 302 303 302 302 302 301 301 301 302 302 302 302 301 300 300 299 298 297 297 295 295 294 294 294 294 294 294 293 291 290 288 287 286 285 284 284 283
308 311 308 310 314 315 314 313 314 315 314 315 314 312 311 311 313 314 312 312 314 315 315 315 316 317 317 316 316 317 317 317 316 315 314 310 308 308 308 307 307 307 308 307 307 307 307 307 307 306 306 305 305 304 304 304 304 303 302 302 302 302 302 301 301 301 301 301 301 301 302 301 301 300 299 298 298 297 296 295 294 294 294 294 294 293 293 291 289 288 287 286 285 284 284 283 283
305 308 307 308 312 315 315 313 314 314 313 315 318 317 316 318 317 312 311 313 315 315 316 316 316 317 315 315 316 317 317 317 316 316 315 310 307 308 308 307 307 306 306 306 306 306 305 306 306 306 306 306 305 305 304 304 303 303 302 302 302 302 301 301 300 300 300 300 301 301 301 300 300 299 298 298 297 297 296 295 294 294 294 293 293 292 291 289 287 286 286 286 285 285 284 283 284
308 310 311 308 309 311 311 312 313 314 314 313 315 318 319 319 315 311 313 316 318 317 316 317 318 316 314 314 317 317 317 317 315 316 315 309 307 308 308 307 307 306 305 305 305 305 305 305 305 305 305 305 305 305 304 304 303 303 302 302 301 301 301 301 300 300 300 300 300 300 300 299 299 298 298 297 297 296 295 295 294 293 293 292 292 291 289 288 286 285 286 286 285 284 283 283 284
311 313 314 313 313 313 312 312 312 312 313 312 313 317 319 317 313 313 313 314 318 319 317 319 318 314 313 315 315 315 316 316 315 316 313 308 307 308 307 307 307 306 306 305 305 305 305 305 304 304 304 304 304 304 304 304 303 303 302 301 301 300 300 300 300 299 299 299 299 299 299 298 298 297 297 297 296 295 295 294 293 293 292 292 291 289 288 286 285 285 285 285 285 284 283 282 283
Wind_Speed
1 4 5 5 7 9 10 4 2 3 3 6 4 3 4 4 6 5 5 4 2 4 3 3 4 4 2 1 1 4 3 2 0 1 1 4 9 9 8 7 5 6 6 3 2 2 0 5 4 4 5 5 5 6 6 6 7 7 7 7 7 7 8 9 9 10 10 11 11 12 12 12 13 14 14 15 15 15 15 15 16 16 16 16 17 17 17 17 17 17 17 17 17 18 18 19 19
3 7 7 8 11 6 3 0 2 3 4 5 4 4 4 2 5 5 5 4 4 4 2 3 3 2 1 2 2 1 3 3 3 2 3 9 10 8 8 7 6 6 7 6 4 2 1 4 4 3 5 4 4 5 5 6 6 7 7 7 7 7 7 8 9 9 10 10 11 11 12 12 12 13 13 14 14 15 15 15 15 15 16 16 16 16 16 16 16 16 16 17 17 17 18 18 18
3 7 10 12 9 4 1 1 3 4 5 5 3 2 3 3 5 5 7 7 6 4 2 1 1 1 3 3 1 0 3 2 5 6 6 12 11 10 10 8 7 7 6 7 6 3 2 3 4 2 4 4 4 4 5 5 5 6 6 7 6 7 7 8 9 9 9 9 10 10 11 11 11 12 12 13 14 14 14 14 15 15 15 15 16 16 16 16 16 16 16 16 17 17 17 18 18
5 7 9 10 3 2 1 1 2 4 5 4 3 2 2 4 7 6 7 6 4 2 1 1 1 0 3 1 1 1 4 4 7 6 6 12 11 12 12 9 8 7 6 6 6 4 4 4 3 1 4 3 3 4 4 5 5 6 6 7 7 7 7 7 8 8 9 9 9 10 10 11 11 11 12 12 12 13 14 14 14 14 14 14 15 15 15 16 16 16 16 17 17 17 17 17 18
7 8 9 7 1 1 1 3 3 4 4 2 4 3 4 7 7 7 6 5 3 1 0 1 0 2 1 1 2 1 4 5 7 6 9 12 9 13 12 9 9 7 6 4 5 3 4 5 4 1 3 3 2 3 3 4 5 5 6 6 7 7 7 7 8 8 9 9 9 9 10 10 10 10 11 11 11 12 13 13 13 13 14 14 14 15 15 15 16 16 17 17 17 17 17 17 18
9 8 8 5 1 0 1 4 4 4 1 0 5 4 6 7 7 8 6 5 4 2 1 2 1 0 1 2 1 1 3 5 8 8 11 13 12 13 11 10 9 7 6 4 4 4 6 7 5 3 1 2 2 2 3 4 4 5 5 6 7 7 8 8 8 9 9 9 9 9 9 9 9 9 9 10 10 10 11 12 12 12 13 13 14 14 14 15 15 15 16 16 16 16 16 17 17
9 4 3 2 0 1 4 5 5 4 3 2 7 6 7 7 7 8 7 5 4 3 3 2 1 2 1 2 1 2 6 7 10 10 11 14 15 14 12 11 10 9 7 6 5 6 9 8 6 4 2 2 2 1 3 3 4 5 6 7 7 8 8 9 9 9 9 9 9 9 9 9 9 9 8 8 9 9 10 11 11 11 12 12 12 13 13 13 14 14 15 15 15 15 16 16 17
8 3 1 1 2 3 5 5 5 3 4 5 7 6 7 8 6 7 6 4 3 3 4 3 2 2 1 1 1 5 9 7 10 12 12 15 15 14 13 11 11 10 9 8 7 8 10 8 7 6 4 2 1 1 1 2 4 5 6 7 8 8 9 9 10 10 10 10 10 10 9 9 9 9 8 7 7 8 8 9 10 11 11 11 11 12 12 12 13 13 14 14 14 15 15 15 15
8 3 2 1 4 4 5 4 5 4 4 5 6 6 7 7 5 5 5 2 3 4 4 5 3 1 0 2 1 6 11 9 11 13 13 14 15 15 14 12 11 11 10 9 9 10 11 9 8 7 5 4 2 1 1 2 3 4 6 7 8 9 9 10 10 10 10 10 10 10 10 10 9 9 8 7 7 7 7 7 9 10 10 10 11 11 11 11 12 12 12 13 13 14 14 14 14
6 3 1 2 5 5 5 4 4 4 4 5 4 5 6 5 3 2 4 4 3 4 4 3 1 2 3 2 2 3 11 13 13 14 13 14 15 15 14 13 12 10 10 10 10 11 11 10 8 8 7 5 3 1 0 1 2 4 5 6 7 8 9 10 10 11 10 10 10 10 10 9 9 9 9 8 7 7 6 6 7 8 9 9 9 9 10 10 11 11 12 12 13 13 13 14 14
2 2 0 3 4 4 5 4 4 4 4 5 4 5 4 4 2 1 1 3 3 3 4 3 1 3 4 2 1 4 14 17 15 15 16 15 15 15 14 13 13 12 11 11 11 11 11 10 9 9 8 6 4 2 1 1 2 3 4 5 6 7 8 9 10 10 10 11 10 10 10 10 10 9 9 9 8 7 7 6 6 7 7 8 8 9 9 9 10 10 11 11 12 12 13 13 13
1 1 1 2 4 4 5 5 4 5 3 3 4 4 3 3 3 3 2 2 4 3 4 5 1 0 4 2 0 8 16 17 15 15 15 16 16 16 14 13 13 13 12 12 12 12 12 11 11 10 9 8 6 4 3 2 2 3 4 5 6 7 7 8 9 9 10 10 10 11 10 10 10 10 9 9 9 8 8 7 7 7 7 8 8 9 9 9 10 10 10 11 11 12 12 13 13
1 2 2 3 4 5 5 5 4 5 3 3 4 5 4 4 4 3 4 2 4 4 4 7 2 1 3 1 2 8 12 17 16 14 15 16 16 16 15 13 12 13 13 13 14 13 12 12 12 11 11 9 7 5 4 3 3 3 4 5 5 6 7 7 8 8 9 9 10 10 10 11 10 10 10 10 10 9 9 8 8 8 8 8 8 9 9 10 10 10 11 11 11 12 12 12 13
1 1 2 4 5 5 5 5 4 4 3 3 5 6 4 4 4 0 2 3 4 3 2 4 3 1 2 0 3 5 10 17 17 14 15 15 14 15 15 14 13 13 13 14 16 15 14 14 12 11 12 11 9 8 6 5 4 4 5 5 5 6 6 7 7 7 8 8 9 9 10 10 10 10 10 10 10 10 10 10 9 9 8 8 9 9 9 10 10 11 11 12 12 12 13 13 13
2 1 1 4 4 4 3 3 5 4 3 5 6 6 5 2 1 0 2 3 2 3 4 3 2 1 1 1 1 3 14 19 17 15 15 14 13 13 15 15 14 14 15 16 16 17 16 15 13 13 13 13 11 9 7 6 6 5 5 6 6 6 7 7 7 7 7 8 8 9 9 9 9 10 10 10 11 10 10 10 10 10 9 9 9 9 10 10 10 11 12 12 13 13 13 12 14
3 1 1 4 4 4 2 3 5 4 4 6 6 6 6 3 3 3 1 2 1 4 4 2 4 2 3 1 4 6 16 20 16 15 14 14 14 13 14 15 16 16 17 18 18 18 17 16 15 15 15 14 13 10 8 8 8 7 6 7 7 7 7 7 7 7 7 7 7 8 8 8 9 10 11 11 11 10 10 10 10 10 10 10 10 11 11 11 11 12 12 12 12 12 12 12 14
2 1 3 4 5 4 1 2 3 3 6 7 7 7 6 5 4 2 2 1 3 2 3 3 6 5 4 1 6 10 15 17 16 15 14 15 14 14 14 15 17 17 18 20 20 20 19 18 17 16 16 15 14 12 10 10 10 8 7 7 7 7 7 7 7 7 7 7 7 8 9 8 9 11 10 10 10 10 10 10 10 10 11 11 11 11 11 12 12 12 12 12 11 12 13 14 15
2 1 3 3 3 3 2 2 2 3 8 7 8 8 6 5 5 3 2 3 5 5 4 5 6 8 10 5 9 10 12 14 16 16 15 16 15 15 16 17 18 19 20 20 21 20 20 20 19 19 18 16 15 14 12 11 11 10 9 9 8 8 7 7 7 8 8 8 7 8 9 8 9 10 10 9 9 9 8 9 10 10 10 10 11 11 10 11 11 11 12 12 12 13 15 16 16
1 2 3 3 3 2 4 5 3 2 8 8 8 7 5 4 6 4 2 5 6 7 6 6 7 8 12 10 11 12 12 14 16 17 17 17 18 18 18 18 19 20 20 20 21 20 20 20 19 19 20 18 16 15 13 12 12 11 10 9 9 8 8 7 7 8 8 9 9 8 8 8 8 9 10 8 9 9 8 9 9 8 9 9 10 9 9 10 11 11 12 13 13 14 15 15 16
2 2 3 3 3 4 5 5 5 3 10 9 7 6 4 3 3 3 3 5 6 8 6 7 10 9 10 13 15 15 15 17 18 19 19 19 20 20 19 18 19 21 20 19 19 19 19 20 20 19 18 18 18 16 14 13 12 10 9 9 9 9 9 8 8 9 9 9 9 8 8 8 8 9 10 9 9 10 10 10 10 10 10 10 10 11 11 12 12 12 12 13 14 15 15 15 16
3 3 4 3 4 5 4 4 6 4 8 7 7 5 3 3 3 3 4 5 6 8 9 9 11 11 11 12 18 20 18 18 19 21 20 20 21 21 20 19 19 19 18 18 18 18 18 18 19 19 17 17 18 17 15 13 11 10 9 9 9 9 9 10 10 10 10 10 9 8 9 9 9 10 10 9 9 10 11 11 11 12 12 12 12 12 13 13 13 14 14 14 15 15 16 17 17
4 4 5 3 3 4 3 3 5 5 5 6 6 4 1 2 3 5 6 6 6 4 5 7 7 8 10 13 19 20 19 19 19 21 22 22 22 22 21 19 18 17 16 18 18 17 17 17 18 18 18 18 18 17 15 14 12 11 12 10 10 10 10 11 11 11 11 11 10 9 9 10 10 10 10 10 10 10 10 10 11 11 12 13 12 13 13 13 14 15 15 15 16 16 17 17 17
3 3 4 6 5 5 4 3 4 5 4 6 3 1 1 1 4 6 9 12 9 3 3 3 0 1 2 10 18 17 17 18 20 22 23 23 23 23 22 20 19 17 15 16 17 16 16 17 17 18 18 18 18 17 16 14 14 14 13 11 11 11 10 11 12 11 11 12 11 10 11 11 11 11 10 10 11 11 10 10 10 11 12 12 12 12 13 13 13 14 15 15 16 17 17 18 18
4 4 4 6 7 6 4 3 3 5 3 2 1 2 1 5 5 3 10 15 12 11 8 4 2 0 3 3 10 15 18 19 21 23 24 24 24 24 23 21 19 18 17 16 17 17 16 16 16 18 18 18 18 17 16 16 16 16 14 12 13 13 12 12 13 12 12 12 13 12 12 11 11 11 10 11 11 11 11 11 12 12 11 11 12 12 12 13 13 14 14 15 16 17 17 17 18
6 4 4 4 5 5 5 4 2 4 3 3 2 3 5 7 4 5 13 14 10 13 13 10 7 5 3 4 5 11 16 18 20 21 22 23 23 23 23 23 21 19 19 18 17 18 17 17 17 18 19 18 18 18 16 16 16 15 14 14 14 14 13 13 13 13 12 14 14 13 13 12 12 12 12 11 11 11 12 13 13 12 11 11 12 12 12 13 13 14 14 15 15 16 16 17 17
3 5 5 5 5 4 4 3 3 1 0 1 2 5 7 4 2 8 16 16 12 11 10 10 8 7 7 6 7 8 10 14 18 19 21 21 21 22 23 24 23 22 21 19 18 18 18 18 18 19 18 17 17 17 16 15 15 15 15 15 15 14 14 13 13 13 14 15 15 14 14 14 13 13 13 12 12 12 13 13 13 12 11 11 12 13 13 14 14 14 14 15 15 16 17 17 18
5 7 6 6 5 4 1 1 4 1 2 2 3 6 7 2 3 7 10 8 9 11 10 10 9 9 9 7 8 11 12 14 17 18 18 19 21 22 23 23 25 24 22 21 20 20 19 18 19 19 18 18 16 16 16 16 15 15 15 16 15 14 14 14 13 14 15 15 15 16 15 15 14 14 14 14 14 14 14 14 13 12 12 12 12 14 15 15 15 15 15 15 16 17 18 19 18
7 8 6 5 4 4 2 2 4 3 2 4 5 7 8 3 3 12 9 1 4 8 9 9 9 8 8 8 8 11 14 16 18 18 18 20 21 23 24 24 25 24 23 23 22 20 19 19 19 19 19 19 18 18 18 17 16 16 15 16 15 14 14 14 15 15 16 16 16 16 17 16 16 15 16 16 15 15 14 14 13 13 14 13 13 14 15 15 15 15 15 15 16 17 18 18 18
6 5 3 4 3 3 4 2 3 2 1 3 4 6 6 7 10 18 11 4 5 6 7 8 9 8 7 8 8 9 14 17 19 20 21 22 22 23 24 25 24 24 24 24 22 21 20 19 18 19 19 19 20 19 18 18 17 16 16 16 16 15 15 16 16 16 16 17 17 17 18 18 17 17 17 17 17 16 15 15 15 14 14 13 14 15 15 15 14 15 14 15 15 16 17 17 17
4 4 1 3 3 2 4 2 3 2 1 3 1 4 4 7 15 17 7 8 7 6 7 7 8 7 7 8 7 8 13 17 19 21 23 23 23 23 24 24 23 23 23 22 22 21 20 19 18 18 18 18 19 19 17 17 16 16 16 17 17 17 17 17 17 17 17 18 18 18 18 18 18 17 17 18 18 17 16 16 15 15 13 13 14 15 15 14 14 14 14 14 15 16 17 17 17
2 0 1 2 1 1 3 2 2 1 0 2 0 2 7 7 11 11 6 9 8 7 8 8 7 7 7 8 8 8 11 17 20 22 24 24 24 24 23 22 21 22 21 20 20 20 20 19 19 19 18 19 19 18 16 16 16 16 16 16 17 17 18 18 18 18 19 19 19 19 19 19 19 18 18 18 18 18 17 16 15 14 13 14 15 14 15 14 13 13 13 14 16 16 17 17 17
2 2 1 1 1 1 2 1 1 0 1 3 1 2 7 10 6 4 7 7 8 8 8 8 8 9 8 8 8 7 8 15 20 22 24 25 25 25 24 23 21 21 21 20 18 18 19 19 19 20 19 19 19 17 15 16 16 17 17 17 18 18 19 20 20 20 19 19 19 20 20 20 19 18 18 18 19 19 18 17 15 13 13 15 15 15 15 14 12 12 13 13 14 16 17 17 16
2 1 1 1 3 1 2 1 1 0 2 3 5 4 7 7 3 4 6 7 8 8 8 9 9 9 9 7 8 7 7 10 15 20 24 25 26 26 25 23 22 21 21 20 19 19 20 20 20 19 18 18 17 17 16 16 17 18 19 19 19 20 21 21 21 21 21 21 21 21 21 21 20 19 18 18 19 19 18 17 15 13 15 17 16 15 15 13 12 12 13 12 12 14 16 17 16
1 1 2 1 1 2 1 1 1 1 1 4 5 6 11 12 8 6 7 8 9 9 9 9 8 8 8 7 7 7 8 8 10 18 24 25 25 26 25 24 24 23 22 21 21 21 20 20 21 20 19 17 17 17 17 17 18 19 20 20 21 22 23 23 22 22 22 22 22 22 22 21 21 20 19 19 19 18 18 18 16 15 17 17 16 15 14 12 12 12 13 12 11 13 14 15 15
4 4 4 3 3 3 2 0 1 1 3 5 5 8 15 16 13 12 10 9 10 11 9 8 8 8 7 7 7 7 8 8 10 18 23 25 25 25 25 24 23 23 22 22 22 21 20 19 20 20 19 18 17 17 17 17 18 19 20 20 22 23 24 24 24 23 23 23 23 22 22 22 21 20 19 19 19 18 18 18 17 17 18 17 16 14 13 12 12 12 12 12 12 12 11 11 13
5 5 3 5 6 3 1 2 2 1 3 6 7 10 14 15 13 12 10 9 11 11 9 7 7 7 7 7 7 7 8 8 12 18 22 24 25 24 24 23 22 22 22 22 22 22 21 20 19 20 20 19 18 18 18 18 19 20 20 21 23 24 25 25 25 25 24 24 24 23 23 22 22 21 20 19 18 18 18 18 18 17 18 16 15 14 12 11 11 12 12 13 13 11 8 7 11
5 5 4 6 6 3 1 3 2 1 2 6 7 9 13 15 15 13 11 7 10 9 8 7 7 7 7 7 7 8 8 7 10 14 17 21 24 23 22 22 21 21 21 21 21 22 22 21 21 21 21 19 19 20 20 21 22 21 22 23 25 26 25 25 25 25 24 24 23 23 23 22 21 20 20 19 18 18 18 18 17 17 17 16 14 13 11 10 12 13 13 12 11 9 8 7 10
4 4 5 5 4 4 2 3 2 2 1 6 7 10 14 14 14 12 7 4 6 8 8 8 8 7 7 7 8 7 6 5 7 9 11 16 20 21 21 21 21 21 22 22 21 21 21 21 22 22 21 21 21 21 22 23 23 23 23 24 24 24 23 23 23 23 22 22 21 21 22 21 20 20 19 19 18 18 17 17 17 17 17 15 14 12 12 13 13 13 13 10 8 7 8 9 10
4 3 4 5 3 4 3 3 3 3 2 5 7 10 14 14 12 10 2 3 3 3 4 4 5 6 6 7 8 8 6 5 6 8 10 14 17 19 20 20 21 21 20 21 21 21 21 21 21 21 21 22 22 22 23 23 23 23 22 20 18 18 18 18 19 19 19 19 19 20 20 20 20 19 19 19 19 18 17 17 17 17 17 15 13 13 13 14 13 12 11 8 6 6 7 8 8
2 3 2 4 4 4 2 0 3 5 2 4 8 9 10 10 7 4 0 2 0 1 1 2 2 4 5 3 3 5 7 7 7 7 9 14 17 18 20 21 22 21 19 19 20 21 21 22 22 22 22 22 23 23 23 23 21 19 19 18 17 15 16 17 17 17 17 18 19 19 20 20 20 19 19 19 19 18 17 16 16 17 17 15 13 13 14 13 12 11 10 8 6 6 6 6 6
2 3 2 2 3 3 3 5 9 9 3 3 7 7 5 5 5 3 2 1 2 2 2 3 4 5 4 4 4 3 5 6 7 8 9 13 17 19 21 22 21 21 22 21 21 22 22 22 22 22 23 23 23 23 23 22 21 20 20 21 20 18 18 18 18 19 20 20 21 22 21 20 20 20 20 20 19 18 18 17 17 17 17 16 14 13 14 13 12 11 10 8 8 7 7 5 5
2 2 2 2 3 4 6 8 9 6 3 4 3 4 4 5 7 4 2 2 3 2 3 4 5 4 4 5 6 5 6 5 5 5 7 12 16 18 19 20 20 21 22 22 22 22 22 22 22 22 22 23 23 23 22 22 22 22 22 22 22 21 21 22 23 24 23 23 23 23 22 21 21 20 20 20 19 19 19 18 17 18 18 17 15 13 13 14 14 13 11 10 9 8 8 7 5
1 2 2 3 3 5 6 6 6 3 3 5 4 3 3 6 7 5 0 4 4 2 1 2 5 5 5 6 6 6 6 6 5 5 4 9 15 16 17 20 21 21 21 20 20 21 21 20 20 21 21 21 21 21 21 21 22 23 23 23 23 22 23 23 23 22 21 21 20 20 21 21 20 20 21 20 20 19 19 19 18 18 18 18 16 14 14 16 15 14 12 10 10 8 8 8 6
1 3 1 3 4 4 5 5 4 3 3 5 4 3 1 5 7 6 1 3 5 6 6 4 3 3 2 1 3 4 6 6 6 6 5 6 10 14 16 18 19 19 18 17 18 19 20 20 19 20 20 20 19 20 21 21 22 22 23 23 22 21 20 18 17 15 16 17 17 19 20 20 20 20 21 21 20 20 20 19 18 18 18 18 17 16 15 16 16 15 12 10 11 9 8 9 8
1 2 1 2 3 3 4 3 5 4 2 3 5 4 1 5 7 6 2 4 7 7 7 7 6 6 6 5 5 3 1 2 3 4 6 8 11 13 14 15 16 16 17 18 19 19 20 20 19 20 19 19 20 20 20 21 21 21 21 22 22 21 19 16 15 15 17 17 18 19 19 19 20 19 20 21 21 21 21 20 19 18 19 19 18 16 15 16 16 15 13 11 11 10 9 10 10
1 2 2 2 2 3 3 2 4 3 1 2 5 5 2 4 8 5 4 5 5 6 6 6 7 8 7 7 8 7 6 5 4 2 1 4 8 11 12 12 13 15 17 18 19 19 20 20 20 21 20 20 20 21 21 21 21 21 22 22 22 22 20 19 18 19 19 20 20 20 20 20 20 20 21 22 22 22 21 21 20 19 19 19 19 17 17 18 17 15 13 11 11 11 11 11 11
3 3 2 1 2 2 1 3 3 2 2 2 2 4 3 2 7 4 3 4 4 4 5 6 7 8 7 7 7 6 6 5 5 3 2 1 3 5 7 9 10 13 16 17 19 20 21 21 22 22 22 21 22 22 22 22 21 22 23 23 23 22 21 21 21 22 22 22 22 22 22 21 21 21 21 23 23 23 22 22 21 20 19 20 19 18 19 19 17 15 13 12 12 12 12 11 11
2 2 2 2 2 2 2 2 0 1 3 2 0 3 1 1 6 5 5 6 5 5 5 6 8 8 7 6 6 5 4 5 5 3 2 3 4 6 8 10 11 12 15 17 19 20 21 22 22 23 23 23 24 24 24 23 23 23 24 24 24 23 22 23 24 25 24 24 24 24 23 22 22 22 21 23 24 24 23 23 22 21 20 21 19 19 20 18 16 15 14 14 14 13 13 12 12
0 2 3 3 3 3 2 3 1 0 4 3 2 2 1 4 8 9 8 6 5 5 5 6 5 5 6 6 6 6 5 5 4 4 3 4 5 8 10 12 13 15 17 19 20 20 21 22 23 24 25 25 25 25 24 24 24 25 25 25 25 25 24 25 26 26 26 25 25 24 24 24 24 23 23 24 25 25 24 24 23 22 22 21 20 20 19 17 16 17 16 15 15 14 13 12 12
0 1 2 3 2 2 2 4 2 1 4 3 3 0 2 4 6 7 4 2 4 6 6 6 5 4 3 4 4 5 5 4 4 4 4 5 7 8 10 11 13 15 18 20 21 21 22 23 23 24 25 24 25 25 25 25 26 26 26 26 26 26 26 26 27 27 26 26 25 25 25 25 25 26 26 25 24 24 24 24 23 22 22 21 20 20 19 18 18 17 17 16 16 15 14 13 12
1 2 3 4 3 2 2 2 1 3 5 4 1 0 2 3 5 4 2 3 5 6 5 6 6 3 1 3 4 6 6 5 5 5 5 6 7 8 9 10 12 14 16 18 20 21 22 24 25 26 26 26 25 26 26 27 28 27 27 27 26 26 27 27 27 27 26 25 25 25 25 25 26 26 26 25 24 24 23 23 23 22 21 21 21 21 21 20 19 18 18 17 16 15 14 14 13
1 1 4 2 3 3 2 1 2 1 3 4 2 2 4 4 7 5 3 6 5 5 5 6 6 4 1 1 4 6 6 6 6 6 6 7 8 9 9 11 12 12 14 16 18 20 22 24 25 27 28 27 27 28 28 28 28 28 28 28 27 26 27 27 27 28 27 26 25 24 24 25 25 25 25 24 24 24 23 23 23 22 22 22 23 23 23 22 20 20 19 18 17 16 15 15 14
1 1 1 2 2 4 3 0 1 2 1 3 3 4 5 3 6 5 3 6 5 4 5 6 4 3 2 3 5 6 6 6 6 6 6 8 11 11 11 12 12 13 13 15 17 19 21 23 25 26 27 27 28 29 29 29 29 28 29 28 27 27 28 28 29 28 27 26 25 25 24 24 24 24 24 24 24 24 22 23 23 23 24 25 24 24 24 22 21 21 20 19 18 17 16 15 15
2 1 2 2 1 3 2 1 2 1 1 3 2 5 6 4 3 4 2 4 5 6 6 4 2 3 4 5 6 6 6 6 6 7 7 9 12 14 14 14 13 13 14 15 16 17 18 21 23 24 26 27 27 28 29 30 29 29 30 30 29 29 29 29 29 27 26 25 25 25 25 24 24 24 24 24 24 24 23 24 25 25 26 26 25 25 24 23 22 22 20 19 19 17 16 16 15
2 2 2 0 2 1 1 1 1 1 2 3 5 6 5 2 4 2 3 3 5 5 5 5 4 4 5 6 6 7 7 6 6 7 7 8 12 14 16 16 16 15 14 15 16 16 17 19 21 23 25 26 27 27 28 29 29 29 29 30 29 29 29 29 28 27 26 25 26 26 25 25 25 25 25 25 25 24 24 26 26 27 27 26 26 25 24 24 23 22 21 19 19 18 17 16 15
0 1 2 1 1 2 2 1 2 2 1 3 5 6 4 5 5 2 4 4 5 4 4 3 3 3 4 6 6 7 7 6 6 6 6 8 12 15 15 16 17 16 15 15 15 15 16 17 19 21 23 24 25 26 27 29 29 29 29 30 29 29 28 28 27 26 26 26 26 26 26 26 26 27 27 26 26 25 26 27 28 28 28 27 27 26 26 25 24 23 21 20 19 17 16 15 14
1 1 1 1 0 1 1 1 1 3 1 2 2 4 6 6 2 4 5 5 5 3 2 3 4 3 5 6 6 6 6 6 6 6 6 8 12 15 16 15 16 16 16 15 14 15 15 16 17 18 20 22 23 25 26 28 28 28 29 29 29 28 27 26 26 25 26 26 26 26 26 26 27 27 27 27 27 27 27 28 29 30 29 29 28 27 27 25 24 23 21 19 18 17 16 15 14
3 4 4 4 4 3 1 2 2 2 2 2 2 3 7 7 1 5 6 5 4 3 2 4 5 4 5 6 5 6 6 6 7 6 6 8 11 14 16 16 15 15 15 16 15 14 15 16 16 17 18 20 22 23 25 26 27 27 28 28 27 26 25 24 24 24 25 26 26 25 25 26 27 28 28 28 28 28 29 30 30 30 29 29 29 28 27 25 24 23 20 18 17 17 16 16 15
Wind_Direction
343 316 313 311 295 300 298 257 81 65 95 78 90 106 65 68 104 104 114 139 111 65 26 46 33 11 354 321 4 63 55 4 115 207 188 169 147 147 161 154 154 139 123 134 133 77 5 332 10 69 36 18 20 18 26 24 21 25 29 28 26 23 20 20 17 18 18 19 19 19 18 19 23 20 20 21 22 22 22 22 22 22 22 22 22 23 22 22 21 21 21 20 20 19 18 18 17
341 316 307 295 272 263 302 294 87 97 91 81 65 77 111 149 114 84 89 91 74 87 41 47 34 5 321 251 262 88 81 42 89 112 122 152 150 159 174 159 157 146 145 163 146 107 206 310 346 71 51 22 22 21 26 27 23 24 29 30 26 23 22 21 19 18 17 18 17 18 17 16 21 21 20 21 21 21 21 21 21 22 21 22 21 22 21 21 21 20 20 20 19 19 19 17 17
320 300 302 300 262 208 347 352 106 115 94 86 73 93 170 151 103 77 78 83 87 96 69 105 112 306 264 219 243 28 137 116 114 109 125 160 165 175 176 166 163 151 156 160 147 139 208 279 321 72 64 31 26 27 30 32 29 28 29 29 28 26 24 24 20 18 18 18 17 17 17 16 18 20 20 21 22 21 21 20 20 21 20 21 20 20 19 18 18 18 18 18 18 17 18 17 17
302 289 289 304 272 170 318 91 84 97 93 99 120 173 184 107 106 101 98 96 93 105 145 181 142 201 290 279 3 52 138 133 135 127 145 175 183 177 173 172 166 155 167 158 138 153 222 268 312 82 76 48 36 33 36 36 35 33 33 30 29 28 25 26 22 18 20 18 18 18 16 16 16 19 19 19 21 20 19 19 19 19 19 19 18 18 16 16 16 15 15 15 16 15 16 16 16
289 288 269 274 275 229 331 69 45 76 93 121 131 165 137 111 125 121 116 116 118 162 237 325 69 157 265 290 310 151 136 123 148 155 147 166 175 170 174 170 164 165 174 158 134 170 241 261 289 254 97 70 48 41 41 38 39 36 36 35 31 29 25 25 22 17 18 17 17 17 16 16 15 17 18 18 19 20 18 17 17 16 16 16 16 15 14 14 14 13 13 13 14 14 14 15 16
284 281 266 260 234 219 58 67 65 80 18 109 122 140 126 124 135 126 131 132 138 181 197 272 261 198 189 147 8 113 153 136 153 165 150 158 165 169 178 167 166 176 180 183 157 190 240 251 258 250 145 111 68 49 47 41 42 39 35 33 27 26 23 20 19 15 15 14 12 13 13 12 12 13 16 18 16 18 19 15 14 14 13 13 13 12 12 11 12 11 10 12 12 13 13 14 17
294 286 260 282 94 60 73 84 82 84 350 42 118 133 127 130 134 129 149 145 151 185 178 241 267 274 262 135 65 134 151 140 152 169 162 162 164 169 178 167 172 183 184 199 186 198 231 245 245 243 215 158 116 69 54 42 35 34 30 26 24 23 20 19 17 15 13 11 9 9 9 7 7 8 11 16 16 14 17 16 12 11 11 11 11 10 10 9 9 9 8 9 10 11 12 14 16
283 295 258 25 70 63 71 82 68 63 25 58 106 126 127 131 143 145 159 160 159 173 177 206 237 249 243 181 223 159 160 153 157 169 164 163 166 171 179 172 176 186 188 197 199 212 231 243 241 241 233 212 171 122 50 36 26 25 24 25 23 22 21 20 18 16 15 13 11 9 8 8 6 4 5 7 13 12 14 17 12 9 9 8 9 8 8 7 7 7 7 6 6 10 11 13 15
242 249 274 69 74 74 71 79 69 63 63 68 87 111 122 133 159 156 151 157 143 155 172 180 195 210 251 215 166 156 173 168 162 169 165 168 175 175 181 183 181 187 193 199 203 219 237 240 237 242 238 234 215 182 25 27 20 14 17 21 20 20 22 21 21 19 18 17 15 14 12 10 8 6 4 2 4 7 7 13 14 9 7 8 7 6 5 5 5 5 4 3 4 7 9 12 14
223 203 269 83 81 89 89 89 81 76 90 91 99 113 120 137 165 169 150 141 136 151 134 108 178 244 295 216 136 162 179 168 165 175 173 174 181 181 186 189 188 188 195 207 209 220 238 241 237 243 242 238 232 227 322 12 2 5 8 13 16 16 19 20 21 20 20 20 18 18 16 14 13 11 8 6 2 0 0 2 11 10 6 6 3 4 3 1 2 1 1 0 3 5 8 12 14
232 201 317 88 89 94 94 94 96 93 98 111 126 122 125 145 155 215 161 116 134 152 115 108 222 238 266 240 83 141 164 169 174 181 179 180 186 187 192 192 194 194 196 211 216 218 232 245 248 243 243 241 235 234 248 319 341 348 356 4 10 11 14 16 17 18 19 20 20 20 20 19 17 16 14 12 7 3 2 356 360 5 0 358 358 358 357 358 358 358 0 1 3 6 9 12 15
313 276 7 87 82 85 99 104 112 109 117 147 145 143 150 156 165 177 194 128 151 174 150 175 236 240 228 248 175 146 158 176 183 187 184 185 191 190 194 197 200 200 200 210 220 224 226 240 249 246 242 241 238 234 241 267 305 322 342 351 359 5 6 8 10 12 15 17 18 20 21 21 20 20 19 16 14 10 7 4 0 359 356 357 356 356 358 359 360 1 3 5 7 9 11 14 18
350 338 29 77 76 89 108 103 113 118 147 188 153 150 154 167 200 184 185 166 162 193 174 176 152 39 231 280 137 156 170 186 183 187 188 189 198 195 194 199 205 208 209 212 219 225 226 233 242 250 248 237 238 236 239 256 273 298 321 335 346 353 355 359 1 3 8 11 13 17 18 20 21 21 21 19 17 15 12 11 8 6 5 4 4 5 5 5 7 10 11 12 14 14 17 20 24
332 328 56 86 89 94 105 103 140 149 150 148 124 140 160 187 210 172 192 182 170 190 111 134 123 66 257 115 157 182 189 187 180 183 189 192 200 200 200 201 206 212 215 220 223 224 225 229 232 243 251 243 237 235 237 244 256 281 298 316 330 336 344 348 349 355 358 3 7 10 13 15 18 21 22 21 19 17 15 14 13 13 13 13 15 15 14 15 16 18 19 20 21 22 23 25 29
330 269 65 89 92 92 123 152 167 153 124 136 127 145 172 199 173 150 241 212 159 139 104 99 137 136 306 265 259 192 177 177 175 179 185 191 199 206 209 206 209 215 218 221 227 230 229 229 227 229 241 247 244 242 246 248 253 266 282 298 311 320 330 335 339 345 348 356 359 1 6 4 11 20 20 22 22 17 16 16 16 16 18 19 20 20 21 23 24 25 26 25 25 26 24 25 30
329 311 66 89 103 110 167 194 176 158 130 145 144 151 178 182 171 198 276 351 64 150 145 155 177 215 319 337 33 91 150 166 170 175 183 190 198 209 215 217 216 221 224 224 225 229 231 227 227 227 232 241 244 244 246 251 259 264 272 286 297 305 313 322 329 334 339 346 348 352 354 351 4 14 14 17 17 15 16 16 18 18 19 21 21 22 22 24 26 26 26 25 23 23 21 23 27
297 322 100 91 111 117 211 208 178 160 127 138 153 166 185 163 175 192 78 353 267 195 182 202 187 213 269 134 99 102 136 158 169 174 183 191 199 209 217 224 224 226 229 231 231 229 231 227 223 224 230 235 238 241 238 243 256 266 270 277 285 290 299 309 316 324 331 334 340 345 343 348 2 2 0 6 6 9 12 11 17 17 17 19 20 21 18 20 22 20 21 20 17 16 15 16 19
304 335 103 85 89 97 341 50 92 123 130 146 159 178 204 159 167 163 123 213 238 256 240 215 201 209 232 200 139 146 148 158 173 177 185 194 202 211 218 224 225 229 229 232 237 234 231 229 226 223 226 232 235 240 240 243 252 261 268 272 277 282 290 296 304 314 322 327 335 340 338 346 354 344 344 354 353 355 2 6 10 9 12 13 12 15 11 15 16 11 12 10 8 10 9 8 10
23 1 79 59 44 54 4 42 49 110 133 149 157 186 222 153 160 156 181 213 199 231 239 216 220 214 222 208 164 169 172 171 182 187 192 198 204 212 218 221 223 227 229 229 234 237 233 228 229 227 226 229 233 240 242 243 250 259 268 273 278 282 286 290 297 307 316 323 327 332 331 332 335 330 333 343 341 340 347 354 356 356 2 1 2 2 358 6 7 1 3 2 1 3 3 2 3
51 48 67 87 104 77 28 37 26 72 129 146 151 180 224 145 153 149 203 241 216 221 217 203 220 218 213 203 183 179 182 185 192 198 204 207 210 215 217 219 220 223 227 229 231 235 234 225 224 229 229 228 230 237 242 242 248 256 263 266 275 282 287 291 297 302 309 314 317 321 318 316 320 321 324 332 334 334 340 342 342 344 348 350 349 349 350 356 354 352 355 356 356 356 356 356 357
33 26 61 117 141 93 32 39 22 34 123 139 135 153 220 165 163 179 204 244 244 235 219 208 213 210 207 202 192 185 185 192 196 204 212 215 216 220 221 222 222 226 229 227 226 226 228 223 220 223 226 227 229 232 236 241 245 245 244 248 259 269 274 282 292 297 300 303 307 310 308 310 313 312 314 322 329 332 335 335 336 338 338 339 340 343 346 346 345 347 348 349 350 349 350 351 353
59 35 48 53 87 103 70 63 7 348 105 116 128 149 195 135 186 215 220 232 230 217 190 206 218 211 204 198 193 186 188 195 199 205 213 219 222 223 226 228 228 231 227 216 216 217 217 219 218 220 221 224 230 232 234 238 237 234 235 240 248 254 256 264 276 284 290 295 299 301 303 306 308 310 313 317 322 324 324 326 328 328 325 328 332 335 336 337 340 341 342 343 343 344 346 348 350
107 65 43 26 45 96 98 81 352 335 96 119 135 144 65 161 245 218 217 232 231 212 109 106 28 332 243 195 185 183 189 197 202 207 211 217 223 224 226 228 229 230 225 213 209 210 213 220 221 220 220 223 229 233 234 232 231 235 240 241 241 247 250 255 265 272 279 286 291 296 298 300 304 308 309 307 310 314 316 315 314 315 316 320 323 325 327 330 335 336 336 338 339 342 344 345 346
86 100 64 44 60 78 76 83 13 355 46 80 29 341 279 227 252 229 227 234 233 246 259 268 242 294 330 238 183 180 190 199 206 211 214 217 222 226 227 228 229 229 228 223 217 215 217 222 222 219 219 222 227 233 234 232 234 240 245 240 237 245 249 253 263 270 271 273 282 289 291 293 296 298 297 294 298 302 303 303 306 311 312 313 315 318 321 324 328 331 332 334 338 340 340 342 341
54 97 98 79 77 79 85 98 60 11 28 23 330 275 251 239 272 283 252 245 229 236 248 249 229 196 207 259 222 188 188 198 207 213 216 219 223 227 228 229 230 229 228 226 223 220 218 218 218 219 222 224 227 233 237 237 238 239 242 240 241 248 252 254 258 263 262 264 274 282 286 288 287 288 289 290 289 288 291 295 301 306 306 308 311 313 315 317 322 326 328 331 335 336 338 340 337
63 103 110 103 96 102 118 133 108 11 19 69 282 259 252 243 324 275 251 248 237 225 230 230 216 197 193 210 226 212 199 202 206 212 216 218 221 224 226 227 227 228 228 227 223 220 219 218 218 220 224 227 227 229 233 236 236 234 237 242 246 250 255 259 258 258 259 262 269 276 281 284 283 282 283 284 284 284 287 292 298 302 302 305 306 306 309 313 319 323 324 327 332 335 338 339 339
109 107 101 105 117 126 146 173 138 219 232 189 249 265 259 157 88 264 247 243 227 212 217 217 208 203 200 201 211 215 214 214 213 214 216 218 218 220 224 224 224 226 227 226 224 224 224 221 220 220 221 224 225 225 226 231 234 234 237 243 248 249 253 258 259 259 261 264 267 271 277 280 280 278 277 277 278 280 283 288 293 294 293 296 297 297 304 312 317 318 320 326 332 335 337 340 340
123 125 105 107 134 131 177 201 155 227 221 191 245 268 259 165 164 248 242 158 165 190 207 208 209 207 200 207 209 210 214 217 218 215 214 216 217 218 222 223 223 224 224 224 225 226 226 223 221 219 219 220 221 223 226 231 235 236 238 242 247 251 253 254 257 260 262 266 266 267 274 278 278 275 274 274 274 275 278 281 284 283 286 290 289 291 302 310 311 313 319 325 330 333 333 336 336
147 174 109 125 170 148 195 189 140 235 204 187 268 293 255 185 215 246 233 161 144 178 202 201 211 214 207 213 210 211 215 216 215 217 218 219 220 219 221 224 223 223 225 227 228 225 223 223 221 218 219 220 221 225 229 235 239 239 239 242 247 250 252 253 256 260 263 266 266 267 272 276 276 274 273 272 272 273 273 275 277 280 285 285 284 289 300 306 308 313 317 320 325 327 328 331 330
175 228 79 151 200 170 192 156 135 215 202 190 292 325 277 204 225 245 217 159 165 185 207 205 207 209 212 214 212 215 212 212 215 218 221 221 222 222 222 224 225 225 227 228 227 224 222 219 217 217 217 218 222 228 230 234 239 241 241 244 247 248 250 255 258 260 262 263 265 267 271 274 275 274 271 270 270 270 270 272 275 280 283 280 281 291 300 306 308 310 312 315 320 323 326 330 328
181 64 45 192 274 174 178 130 158 205 243 216 73 264 273 274 244 234 178 157 169 195 215 212 209 208 209 206 208 216 209 210 215 219 221 222 222 222 222 223 223 223 222 222 221 219 217 215 214 214 215 217 223 230 230 231 236 240 242 245 247 247 251 256 258 260 261 261 262 266 270 272 273 273 270 267 267 267 267 268 273 279 280 276 281 290 298 303 305 304 307 312 317 322 326 329 331
157 68 343 259 332 213 163 106 191 268 311 220 204 254 269 289 282 181 156 164 177 205 221 212 215 214 210 204 202 211 215 212 215 219 221 222 222 221 222 221 220 219 216 215 214 212 212 213 215 216 219 221 226 232 233 232 234 238 242 245 247 249 253 257 259 261 261 261 261 264 268 271 271 271 268 265 263 264 264 264 268 272 271 272 279 288 294 300 301 298 303 310 314 318 323 328 330
167 203 321 33 330 289 164 303 273 312 332 215 208 260 279 283 311 118 157 182 192 214 225 216 218 219 214 201 194 202 212 214 213 216 219 221 221 221 221 220 218 216 214 213 212 211 211 213 217 221 224 226 229 233 234 235 236 239 242 245 247 249 253 256 259 260 259 260 261 262 266 268 269 269 267 264 261 259 260 261 262 260 262 268 277 284 291 298 296 294 301 308 309 311 318 323 323
11 327 329 74 314 277 231 312 303 203 233 232 218 242 263 265 275 265 224 199 202 219 225 223 220 224 225 199 190 197 202 212 212 212 215 217 218 219 219 219 217 215 215 216 215 217 217 216 219 224 229 230 232 235 236 239 240 241 243 245 247 249 253 256 257 257 258 259 260 261 262 265 267 266 264 262 259 257 255 256 257 255 260 268 275 283 289 291 288 291 299 306 307 307 313 318 318
350 351 341 349 313 275 281 338 249 240 214 240 251 255 265 271 272 265 244 205 206 224 223 226 225 223 227 206 197 200 201 213 213 210 213 214 214 214 214 215 216 215 216 217 217 218 220 219 222 226 229 230 232 234 237 239 240 242 242 244 246 248 251 254 255 256 257 258 259 260 260 262 264 264 262 260 257 255 252 251 252 253 260 268 274 279 285 286 285 289 297 306 311 312 318 317 311
319 322 318 313 304 296 346 113 164 259 259 253 253 256 270 282 282 278 267 215 202 226 227 223 229 224 227 217 210 208 207 212 211 211 211 210 210 209 209 211 212 214 214 216 217 217 217 218 220 224 228 230 229 228 229 232 234 237 239 241 244 247 250 252 255 256 256 257 258 259 258 259 260 260 259 257 256 254 251 251 251 253 258 264 269 273 279 279 277 283 292 302 307 315 326 311 304
296 312 300 288 297 302 64 113 167 155 305 270 260 269 278 285 285 285 277 224 192 217 228 226 229 224 227 226 227 221 216 218 212 212 208 204 204 203 203 204 206 209 209 212 216 217 219 219 219 224 228 230 229 228 228 230 231 232 235 240 244 248 251 252 254 255 255 255 256 256 256 256 256 256 256 255 255 252 249 249 249 253 256 261 266 268 269 261 262 274 283 292 297 309 320 305 313
310 314 305 308 317 306 357 89 189 139 73 279 292 302 288 284 285 283 274 205 188 207 214 225 225 221 224 221 232 232 220 211 193 191 189 185 186 190 194 197 200 204 208 211 215 219 222 223 224 227 229 230 233 234 234 235 237 238 240 244 249 251 252 253 254 256 256 256 254 252 253 253 252 251 253 254 254 251 247 245 246 250 254 258 262 259 255 253 260 269 273 280 281 291 303 302 322
313 302 303 319 340 323 335 97 166 158 141 282 312 310 291 288 281 278 273 144 185 214 209 232 226 226 227 209 218 223 207 189 172 172 176 176 178 183 189 196 201 205 209 213 215 218 221 223 226 228 230 232 235 236 237 240 243 244 243 244 248 247 246 249 251 253 254 252 250 250 251 251 249 249 250 252 252 250 247 244 243 247 252 255 254 251 251 254 260 261 260 264 257 260 273 281 309
311 342 342 317 1 11 295 307 309 276 255 293 300 292 285 289 281 276 266 131 268 299 275 297 282 254 247 227 217 208 196 186 183 187 186 186 187 189 195 200 204 205 207 212 215 218 221 225 228 229 232 235 238 239 239 240 242 241 236 232 231 227 226 230 235 240 244 246 248 249 250 249 248 248 249 250 250 248 246 242 242 245 248 250 248 249 251 254 255 254 250 246 238 229 229 253 287
34 25 41 303 347 354 269 306 312 295 302 299 292 299 288 301 336 321 246 253 296 203 206 265 261 255 266 298 310 254 219 195 186 192 188 185 189 196 202 204 206 206 207 213 218 221 224 228 231 233 235 236 239 240 239 235 232 230 227 224 224 223 224 227 229 233 237 241 246 250 251 248 247 247 247 248 246 245 243 240 239 241 244 246 246 246 247 250 251 248 243 236 233 222 205 217 260
10 20 38 346 330 308 291 312 317 321 333 294 334 7 311 327 347 308 226 323 309 163 178 235 223 214 222 258 267 250 248 240 212 206 186 179 185 194 200 202 205 209 213 218 222 227 229 231 233 235 236 237 238 239 238 233 229 229 227 225 226 226 228 232 237 242 244 246 250 252 251 247 244 244 244 245 244 243 242 239 236 236 240 244 247 245 239 239 241 241 240 235 231 225 211 204 217
331 268 323 330 308 294 304 320 325 337 302 300 22 56 279 320 324 284 29 353 323 75 26 250 176 182 200 218 233 221 223 233 234 249 222 177 178 186 194 201 205 211 219 223 224 227 230 232 234 235 237 237 236 236 236 233 230 231 231 233 234 234 235 241 249 253 252 251 250 246 245 243 241 239 240 242 241 241 239 236 233 233 239 243 245 243 232 231 236 240 241 232 227 224 210 193 190
244 244 292 318 308 300 315 327 292 277 302 317 4 73 229 303 294 270 269 6 2 22 5 359 101 142 181 209 236 212 200 197 198 223 235 202 184 184 192 202 209 214 219 221 223 225 227 229 232 234 235 236 236 236 236 235 233 233 234 235 236 236 238 246 252 247 240 239 237 236 238 239 238 237 237 238 237 237 236 235 234 232 236 240 241 238 230 230 235 236 234 222 219 223 209 188 187
218 254 269 301 325 309 306 314 271 276 1 338 337 34 84 268 283 294 335 36 9 357 357 2 29 52 49 40 25 11 29 122 151 199 218 216 208 202 202 207 213 216 217 220 224 226 228 229 231 233 234 235 236 236 236 237 235 234 234 233 234 234 233 234 236 228 221 225 226 230 234 235 237 235 233 234 234 233 234 235 235 233 233 235 237 234 226 227 231 232 230 222 219 220 213 198 192
250 303 275 250 275 272 264 271 276 302 12 283 318 359 33 283 289 310 18 30 352 337 355 7 25 42 44 44 38 21 16 31 28 1 281 225 218 213 212 211 211 213 216 220 223 226 229 230 230 232 234 234 235 237 237 237 235 231 231 231 233 233 229 225 228 225 222 225 226 228 231 234 236 233 230 231 233 232 232 234 234 233 233 233 233 229 222 222 227 230 229 225 221 216 212 205 195
326 323 291 225 220 254 242 238 256 347 315 253 306 349 48 330 283 286 20 359 1 6 350 354 16 25 28 35 33 21 13 4 353 348 341 287 236 228 221 216 213 213 218 220 223 226 228 229 230 232 234 233 235 237 237 237 235 230 229 231 232 232 228 223 224 226 226 227 228 229 230 231 234 234 231 230 232 233 231 232 234 232 232 231 227 223 221 221 224 228 226 221 219 214 211 205 199
16 333 321 28 6 342 9 298 286 48 293 246 73 339 47 205 265 283 321 336 34 47 7 3 12 11 11 6 356 358 351 329 329 333 299 243 236 243 241 237 233 229 230 230 229 230 230 231 232 232 232 232 234 237 237 236 235 231 230 230 231 232 229 225 226 228 229 229 230 229 228 227 230 233 233 231 231 231 229 230 231 230 228 227 222 219 221 222 222 224 223 220 216 211 208 204 203
56 340 12 43 7 357 3 311 312 169 274 230 145 345 280 224 249 264 292 335 39 58 54 46 33 20 10 355 338 333 324 314 318 322 306 273 255 253 248 246 242 237 238 239 239 238 236 236 235 234 235 233 233 236 236 235 234 233 232 231 233 234 231 230 231 232 233 234 232 229 226 224 224 226 229 231 231 230 228 229 229 228 225 222 219 218 220 220 219 219 217 216 213 208 208 206 205
16 355 60 88 50 18 309 292 317 289 284 254 172 123 290 281 264 246 265 7 69 76 80 84 78 63 6 331 333 337 340 338 325 315 301 284 280 279 269 261 254 246 242 241 242 242 241 240 238 238 239 237 235 236 237 236 235 235 235 235 235 235 234 233 233 234 235 236 234 231 230 228 226 226 230 233 234 231 229 229 229 228 223 219 217 216 216 216 216 216 213 213 210 205 207 207 206
229 175 113 125 137 132 222 259 292 275 297 302 301 153 204 264 272 234 140 92 98 95 107 115 109 114 253 297 349 10 5 349 333 325 308 290 294 297 289 281 271 263 255 248 246 244 242 241 240 240 241 239 236 237 239 238 236 235 236 237 237 237 238 237 236 236 236 235 235 234 233 232 230 231 233 235 235 233 230 227 227 225 220 217 214 212 212 212 212 212 209 209 207 205 206 206 208
276 112 87 131 166 147 161 189 212 220 328 311 280 245 211 227 274 276 121 117 118 123 133 115 114 136 145 354 12 17 360 340 334 331 321 313 315 310 300 295 288 280 271 260 256 251 246 246 244 242 243 241 238 238 240 240 238 236 236 237 238 238 239 238 237 237 235 234 235 234 233 233 233 234 235 233 233 233 230 225 223 219 215 215 213 212 212 211 209 208 206 205 204 206 207 207 211
319 77 107 224 165 120 120 319 301 100 54 281 261 280 293 321 308 306 99 134 149 139 128 117 128 135 81 20 6 6 348 338 332 330 335 334 334 328 316 307 299 294 287 277 271 264 258 255 251 248 247 244 240 239 240 241 239 237 237 237 239 239 239 238 238 237 235 233 232 232 233 232 232 233 232 231 230 230 226 222 219 214 212 214 213 212 212 210 206 205 205 204 204 207 209 208 214
99 143 230 241 96 95 108 56 333 23 252 271 268 273 295 351 315 305 43 129 142 115 107 107 93 42 17 352 353 352 338 334 330 333 342 342 342 339 333 327 316 306 300 294 289 281 272 265 259 256 253 250 247 244 243 242 240 238 238 238 239 240 240 240 240 239 236 233 231 230 230 229 229 228 228 227 226 225 222 218 216 212 211 213 213 211 210 207 204 202 204 205 207 209 210 210 214
153 196 241 184 99 116 119 114 269 292 270 278 298 291 280 233 227 263 40 101 114 85 72 60 30 7 354 344 345 344 340 339 337 341 344 342 343 341 339 338 332 323 313 305 302 294 283 275 268 263 260 258 255 251 247 246 245 243 242 241 242 243 242 242 240 238 236 233 232 231 229 229 227 225 226 226 224 224 221 216 215 213 212 211 211 209 207 204 201 199 202 206 207 209 211 212 214
268 329 347 36 145 168 165 166 172 164 234 276 314 320 291 231 210 125 66 82 97 73 44 28 349 335 351 350 343 338 339 338 335 338 337 335 339 340 339 338 336 334 325 316 310 302 293 286 279 273 269 265 260 254 251 249 248 247 246 245 244 244 244 243 241 239 236 235 235 234 231 230 227 226 227 226 226 225 221 217 214 213 211 209 208 206 204 203 199 198 203 207 208 209 210 211 214
124 114 159 186 175 129 155 263 170 137 174 255 290 299 277 250 204 98 84 93 107 96 23 307 283 323 356 348 337 333 333 329 328 332 329 328 332 335 337 337 337 340 336 331 323 312 305 297 289 283 277 272 266 260 256 253 252 251 249 248 247 247 246 244 242 240 238 238 238 236 234 231 229 229 229 227 227 226 222 218 213 211 210 207 206 204 203 202 198 199 205 208 209 211 211 210 212
153 167 178 177 158 119 93 285 288 111 142 201 205 260 269 262 214 95 102 114 136 163 206 263 282 330 346 333 331 335 332 323 321 324 320 319 325 329 334 337 338 340 342 341 335 324 316 309 302 294 285 278 274 268 262 259 257 255 254 253 252 251 249 246 244 241 239 239 238 237 235 232 230 231 231 230 228 225 221 216 211 210 209 206 206 204 202 201 199 200 203 205 210 212 211 213 215